Location: Bronnegerveen
(52.9548°N, 6.8388°E)
Time: 01:44:53
(UTC+00:00)

Cosmos 1025 Rocket - Pass Details

Date: 15 June 2025
Orbit: 588 x 610 km, 82.5° (Epoch: 07 July)

Event Time Altitude Azimuth Distance (km) Brightness Sun altitude
Exits shadow 02:13:48 - 226° (SW) 2,126 5.1 -6.1°
Reaches altitude 10° 02:14:23 10° 229° (SW) 1,917 4.9 -6.1°
Maximum altitude 02:18:07 30° 291° (WNW) 1,079 4.2 -5.7°
Drops below altitude 10° 02:21:54 10° 354° (N) 1,937 6.3 -5.4°
Sets 02:24:21 0° 5° (N) 2,847 7.5 -5.2°
